Zurück zum Katalog

NAVSTAR 86

USA 585

AktivNavigationHEO
NORAD 68791·PAYLOAD·🇺🇸 United States

Gestartet Apr 21, 2026 von Cape Canaveral Space Force Station

Loading…

Nächste Überflüge (nächste 24 Stunden)

TLE

AktuellSource: CelesTrak SupGP

Epoche: Sep 14, 2026, 00:00 UTC

1 68791C 26087A   26257.00000000  .00000000  00000+0  00000+0 0  2571
2 68791  54.9550 204.2786 0021238 103.0514 145.9189  2.00578137    11

Verfolge NAVSTAR 86 in Echtzeit mit AllMySat

Download on the App Store